User: anonymous   Login
Location: Unspecified
(0.0000°N, 0.0000°E)
Time: 03:21:14
(UTC+00:00)
Language:

OPTUS D2 - Orbit

View from above orbital plane
View from above orbital plane
View from above satellite
View from above satellite

Ground track
Ground track

The orbit data is extracted from the following two-line orbital elements,

1 32252U 07044A   14303.85402962 -.00000195  00000-0  00000+0 0  5414
2 32252 000.0510 066.2347 0002989 142.3785 289.9586 01.00271441 25899
Epoch (UTC): 30 October 2014 20:29:48
Eccentricity: 0.0002989
inclination: 0.0510°
perigee height: 35774 km
apogee height: 35799 km
right ascension of ascending node: 66.2347°
argument of perigee: 142.3785°
revolutions per day: 1.00271441
mean anomaly at epoch: 289.9586°
orbit number at epoch: 2589

The dashed part of the orbit path shows where the satellite is in the earth's shadow,  

DLR